Regional Weather Roundup
Issued by NWS

Home | Current Version | Previous Version | Text Only | Print | Product List | Glossary Off
Versions: 1 2 3 4 5 6 7 8 9 10 11 12 13 14 15 16 17 18 19 20 21 22 23 24 25 26 27 28 29 30 31 32 33 34 35 36 37 38 39 40 41 42 43 44 45 46 47 48 49 50

000
ASUS43 KBIS 232302
RWRND

NORTH DAKOTA REGIONAL WEATHER ROUNDUP
NATIONAL WEATHER SERVICE BISMARCK ND
600 PM CDT SUN JUL 23 2017

NOTE: "FAIR" INDICATES FEW OR NO CLOUDS BELOW 12,000 FEET WITH NO
SIGNIFICANT WEATHER AND/OR OBSTRUCTIONS TO VISIBILITY.


NDZ001>003-009>011-017-240000-
NORTHWEST NORTH DAKOTA

CITY           SKY/WX    TMP DP  RH WIND       PRES   REMARKS
WILLISTON      SUNNY     94  48  20 W6        29.90F HX  90
MINOT          SUNNY     86  50  28 CALM      29.95F
MINOT AFB      SUNNY     84  53  34 E9        29.93F
$$

NDZ018>021-031>035-040>046-240000-
SOUTHWEST NORTH DAKOTA

CITY           SKY/WX    TMP DP  RH WIND       PRES   REMARKS
BISMARCK       SUNNY     85  56  37 SE9       29.98F
DICKINSON      SUNNY     89  51  27 E9        29.95F
GARRISON         N/A     84  53  34 SE6       29.96F
HETTINGER ARPT SUNNY     91  48  22 S10       29.98F
$$

NDZ004>008-012>016-024-026-027-054-240000-
NORTHEAST NORTH DAKOTA

CITY           SKY/WX    TMP DP  RH WIND       PRES   REMARKS
GRAND FORKS    PTSUNNY   80  62  54 CALM      29.97F
GRND FRKS AFB  MOSUNNY   77  60  55 CALM      29.99S
DEVILS LAKE    SUNNY     77  58  51 SW6       30.00F
$$

NDZ022-023-025-028>030-036>039-047>053-240000-
SOUTHEAST NORTH DAKOTA

CITY           SKY/WX    TMP DP  RH WIND       PRES   REMARKS
FARGO          SUNNY     78  61  55 CALM      29.98F
JAMESTOWN      SUNNY     79  59  50 NE6       29.99F
$$





USA.gov is the U.S. government's official web portal to all federal, state and local government web resources and services.